Change the Weather History Date:

Wednesday, March 7, 2012

  Actual Average Record
Temperature  
Mean Temperature 38 °F -  
Max Temperature 46 °F 49 °F 59 °F (2004)
Min Temperature 30 °F 40 °F 27 °F (1999)
Degree Days  
Heating Degree Days 27    
Moisture  
Dew Point 31 °F    
Average Humidity 78    
Maximum Humidity 100    
Minimum Humidity 46    
Precipitation  
Precipitation 0.00 in - - ()
Sea Level Pressure  
Sea Level Pressure 30.42 in    
Wind  
Wind Speed 6 mph (NE)    
Max Wind Speed 16 mph    
Max Gust Speed 18 mph    
Visibility 10 miles    
Events      
Averages and records for this station are not official NWS values.
T = Trace of Precipitation, MM = Missing Value Source: NWS Daily Summary

Daily Weather History Graph

Daily Weather History Graph

Search for Another Location

Airport or City:

Trip Planner

Search our weather history database for the weather conditions in past years. The results will help you decide how hot, cold, wet, or windy it might be!

Date:

Astronomy

Mar. 07, 2012 Rise Set
Actual Time 6:42 AM PST 6:12 PM PST
Civil Twilight 6:12 AM PST 6:41 PM PST
Nautical Twilight 5:39 AM PST 7:15 PM PST
Astronomical Twilight 5:05 AM PST 7:49 PM PST
Moon 5:57 PM PST (3/7) 5:55 AM PST (3/7)
Length of Visible Light 12h 28m
Length of Day
11h 30m
Full, 100% of the Moon is Illuminated
Mar 7
Full
Mar 8
Full
Mar 14
Last Quarter
Mar 22
New
Mar 30
First Quarter

Hourly Weather History & Observations

Time (PST) Temp. Windchill Dew Point Humidity Pressure Visibility Wind Dir Wind Speed Gust Speed Precip Events Conditions
12:15 AM 30.2 °F 26.7 °F 28.4 °F 93% 30.39 in 10.0 mi ENE 3.5 mph - N/A   Clear
12:55 AM 30.2 °F 24.3 °F 28.4 °F 93% 30.40 in 10.0 mi East 5.8 mph - N/A   Clear
1:15 AM 30.2 °F 25.4 °F 28.4 °F 93% 30.40 in 10.0 mi East 4.6 mph - N/A   Clear
1:55 AM 32.0 °F 28.7 °F 28.4 °F 87% 30.40 in 10.0 mi East 3.5 mph - N/A   Clear
2:15 AM 32.0 °F 27.5 °F 28.4 °F 87% 30.40 in 10.0 mi East 4.6 mph - N/A   Clear
2:55 AM 30.2 °F 25.4 °F 28.4 °F 93% 30.40 in 10.0 mi East 4.6 mph - N/A   Clear
3:15 AM 30.2 °F 26.7 °F 28.4 °F 93% 30.40 in 10.0 mi ENE 3.5 mph - N/A   Clear
3:35 AM 32.0 °F 27.5 °F 30.2 °F 93% 30.40 in 10.0 mi East 4.6 mph - N/A   Clear
3:55 AM 32.0 °F 26.4 °F 30.2 °F 93% 30.40 in 10.0 mi East 5.8 mph - N/A   Clear
4:15 AM 30.2 °F 25.4 °F 30.2 °F 100% 30.40 in 10.0 mi East 4.6 mph - N/A   Clear
4:55 AM 30.2 °F 24.3 °F 30.2 °F 100% 30.41 in 10.0 mi East 5.8 mph - N/A   Clear
5:15 AM 30.2 °F - 28.4 °F 93% 30.41 in 10.0 mi Calm Calm - N/A   Clear
5:35 AM 30.2 °F 26.7 °F 28.4 °F 93% 30.41 in 10.0 mi East 3.5 mph - N/A   Clear
5:55 AM 30.2 °F 25.4 °F 28.4 °F 93% 30.41 in 10.0 mi East 4.6 mph - N/A   Clear
6:15 AM 30.2 °F 24.3 °F 28.4 °F 93% 30.42 in 10.0 mi East 5.8 mph - N/A   Clear
6:35 AM 30.2 °F 25.4 °F 30.2 °F 100% 30.43 in 10.0 mi East 4.6 mph - N/A   Clear
6:55 AM 30.2 °F 26.7 °F 28.4 °F 93% 30.44 in 10.0 mi ENE 3.5 mph - N/A   Clear
7:15 AM 30.2 °F 25.4 °F 30.2 °F 100% 30.45 in 10.0 mi East 4.6 mph - N/A   Clear
7:35 AM 32.0 °F 26.4 °F 30.2 °F 93% 30.45 in 10.0 mi East 5.8 mph - N/A   Clear
7:55 AM 32.0 °F 28.7 °F 30.2 °F 93% 30.46 in 10.0 mi ENE 3.5 mph - N/A   Clear
8:15 AM 32.0 °F 26.4 °F 32.0 °F 100% 30.47 in 10.0 mi East 5.8 mph - N/A   Clear
8:35 AM 33.8 °F 28.6 °F 32.0 °F 93% 30.47 in 10.0 mi East 5.8 mph - N/A   Clear
8:55 AM 35.6 °F 30.7 °F 32.0 °F 87% 30.48 in 10.0 mi East 5.8 mph - N/A   Clear
9:15 AM 37.4 °F 32.8 °F 32.0 °F 81% 30.48 in 10.0 mi East 5.8 mph - N/A   Clear
9:35 AM 41.0 °F 37.1 °F 32.0 °F 70% 30.49 in 10.0 mi ENE 5.8 mph - N/A   Clear
9:55 AM 41.0 °F 38.0 °F 32.0 °F 70% 30.49 in 10.0 mi ENE 4.6 mph - N/A   Clear
10:15 AM 42.8 °F 38.6 °F 30.2 °F 61% 30.49 in 10.0 mi NE 6.9 mph - N/A   Clear
10:35 AM 42.8 °F 39.3 °F 30.2 °F 61% 30.48 in 10.0 mi NE 5.8 mph - N/A   Clear
10:55 AM 44.6 °F 41.4 °F 30.2 °F 57% 30.48 in 10.0 mi NE 5.8 mph - N/A   Clear
11:15 AM 44.6 °F 41.4 °F 30.2 °F 57% 30.48 in 10.0 mi NE 5.8 mph - N/A   Clear
11:35 AM 46.4 °F 42.9 °F 26.6 °F 46% 30.48 in 10.0 mi NE 6.9 mph - N/A   Clear
11:55 AM 44.6 °F 40.2 °F 32.0 °F 61% 30.48 in 10.0 mi NW 8.1 mph - N/A   Clear
12:15 PM 44.6 °F 40.2 °F 30.2 °F 57% 30.47 in 10.0 mi NW 8.1 mph - N/A   Clear
12:35 PM 46.4 °F 42.9 °F 32.0 °F 57% 30.46 in 10.0 mi NW 6.9 mph - N/A   Clear
12:55 PM 46.4 °F 43.5 °F 32.0 °F 57% 30.44 in 10.0 mi NW 5.8 mph - N/A   Clear
1:15 PM 46.4 °F 40.7 °F 32.0 °F 57% 30.43 in 10.0 mi NW 12.7 mph - N/A   Clear
1:35 PM 46.4 °F 41.5 °F 32.0 °F 57% 30.42 in 10.0 mi NNW 10.4 mph - N/A   Clear
1:55 PM 46.4 °F 40.7 °F 32.0 °F 57% 30.42 in 10.0 mi NW 12.7 mph - N/A   Clear
2:15 PM 46.4 °F 40.4 °F 33.8 °F 62% 30.42 in 10.0 mi NNW 13.8 mph - N/A   Clear
2:35 PM 46.4 °F 39.8 °F 32.0 °F 57% 30.41 in 10.0 mi NNW 16.1 mph - N/A   Clear
2:55 PM 46.4 °F 41.1 °F 33.8 °F 62% 30.41 in 10.0 mi NNW 11.5 mph 17.3 mph N/A   Clear
3:15 PM 46.4 °F 40.1 °F 33.8 °F 62% 30.41 in 10.0 mi NNW 15.0 mph - N/A   Clear
3:35 PM 46.4 °F 40.4 °F 33.8 °F 62% 30.41 in 10.0 mi NNW 13.8 mph - N/A   Clear
3:55 PM 46.4 °F 40.4 °F 33.8 °F 62% 30.40 in 10.0 mi NNW 13.8 mph - N/A   Clear
4:15 PM 46.4 °F 41.1 °F 33.8 °F 62% 30.40 in 10.0 mi NNW 11.5 mph - N/A   Clear
4:35 PM 44.6 °F 38.4 °F 33.8 °F 66% 30.39 in 10.0 mi NNW 12.7 mph 18.4 mph N/A   Clear
4:55 PM 44.6 °F 37.8 °F 33.8 °F 66% 30.39 in 10.0 mi North 15.0 mph - N/A   Clear
5:15 PM 44.6 °F 38.8 °F 33.8 °F 66% 30.38 in 10.0 mi North 11.5 mph 16.1 mph N/A   Clear
5:35 PM 44.6 °F 39.2 °F 33.8 °F 66% 30.38 in 10.0 mi North 10.4 mph - N/A   Clear
5:55 PM 44.6 °F 39.7 °F 35.6 °F 71% 30.39 in 10.0 mi North 9.2 mph - N/A   Clear
6:15 PM 42.8 °F 38.6 °F 35.6 °F 76% 30.39 in 7.0 mi North 6.9 mph - N/A   Clear
6:55 PM 39.2 °F - 33.8 °F 81% 30.38 in 10.0 mi Calm Calm - N/A   Clear
7:15 PM 37.4 °F 32.8 °F 33.8 °F 87% 30.38 in 10.0 mi NE 5.8 mph - N/A   Clear
7:35 PM 37.4 °F 32.8 °F 33.8 °F 87% 30.38 in 10.0 mi NE 5.8 mph - N/A   Clear
7:55 PM 37.4 °F 32.8 °F 33.8 °F 87% 30.38 in 10.0 mi NE 5.8 mph - N/A   Clear
8:15 PM 37.4 °F 34.9 °F 33.8 °F 87% 30.37 in 10.0 mi NE 3.5 mph - N/A   Clear
8:35 PM 35.6 °F 31.7 °F 32.0 °F 87% 30.37 in 10.0 mi NE 4.6 mph - N/A   Clear
8:55 PM 33.8 °F 28.6 °F 32.0 °F 93% 30.37 in 10.0 mi NE 5.8 mph - N/A   Clear
9:15 PM 35.6 °F 32.8 °F 32.0 °F 87% 30.36 in 10.0 mi NNE 3.5 mph - N/A   Clear
9:35 PM 35.6 °F 31.7 °F 32.0 °F 87% 30.35 in 10.0 mi NE 4.6 mph - N/A   Clear
9:55 PM 33.8 °F - 32.0 °F 93% 30.34 in 10.0 mi Calm Calm - N/A   Clear
10:15 PM 33.8 °F 30.8 °F 32.0 °F 93% 30.34 in 10.0 mi East 3.5 mph - N/A   Clear
10:35 PM 39.2 °F 32.0 °F 32.0 °F 75% 30.32 in 10.0 mi East 11.5 mph 16.1 mph N/A   Clear
10:55 PM 41.0 °F 34.3 °F 32.0 °F 70% 30.31 in 10.0 mi East 11.5 mph - N/A   Clear
11:15 PM 41.0 °F 33.9 °F 32.0 °F 70% 30.30 in 10.0 mi East 12.7 mph 19.6 mph N/A   Clear
11:35 PM 42.8 °F 37.0 °F 30.2 °F 61% 30.29 in 10.0 mi East 10.4 mph 17.3 mph N/A   Clear
11:55 PM 42.8 °F 38.6 °F 30.2 °F 61% 30.29 in 10.0 mi East 6.9 mph - N/A   Clear